カタログに戻る

ARIANE 5 R/B

運用中HEO
NORAD 42952·ROCKET BODY·🇫🇷 France

打ち上げ Sep 29, 2017 から Guiana Space Centre

Loading…

次のパス (今後24時間)

TLE

最新Source: Space-Track

元期: Sep 14, 2026, 09:05 UTC

1 42952U 17059C   26257.37878411  .00002066  00000-0  56093-3 0  9995
2 42952   5.5644 189.9627 7104126  96.5415 341.3813  2.50471038 77288

AllMySatでARIANE 5 R/Bをリアルタイム追跡

Download on the App Store